| time (UTC) | temp C | wind direction | speed KPH | gust KPH | rain 1hr cm | rain 24hr cm | rain mn cm | humidity % | barometer mb |
| 20260508220058 | 15 | 262 | 1.6 | 11.3 | 0.00 | 0.00 | 0.00 | ||
| 20260508203033 | 15 | 305 | 0.0 | 12.9 | 0.00 | 0.00 | 0.00 | ||
| 20260508200104 | 15 | 273 | 3.2 | 8.0 | 0.00 | 0.00 | 0.00 | ||
| 20260508193040 | 13 | 243 | 1.6 | 4.8 | 0.00 | 0.00 | 0.00 | ||
| 20260508190050 | 14 | 233 | 0.0 | 8.0 | 0.00 | 0.00 | 0.00 | ||
| 20260508180100 | 13 | 260 | 0.0 | 6.4 | 0.00 | 0.00 | 0.00 | ||
| 20260508173040 | 12 | 218 | 1.6 | 8.0 | 0.00 | 0.00 | 0.00 | ||
| 20260508170050 | 11 | 250 | 3.2 | 6.4 | 0.00 | 0.00 | 0.00 | ||
| 20260508163051 | 12 | 297 | 0.0 | 4.8 | 0.00 | 0.00 | 0.00 | ||
| 20260508153047 | 11 | 287 | 1.6 | 4.8 | 0.00 | 0.00 | 0.00 | ||
| 20260508150059 | 10 | 104 | 0.0 | 3.2 | 0.00 | 0.00 | 0.00 | ||
| 20260508143038 | 10 | 199 | 0.0 | 3.2 | 0.00 | 0.00 | 0.00 | ||
| 20260508133039 | 10 | 261 | 1.6 | 4.8 | 0.00 | 0.00 | 0.00 | ||
| 20260508130107 | 10 | 246 | 0.0 | 1.6 | 0.00 | 0.00 | 0.00 | ||
| 20260508123046 | 10 | 238 | 0.0 | 6.4 | 0.00 | 0.00 | 0.00 | ||
| 20260508120056 | 10 | 243 | 0.0 | 3.2 | 0.00 | 0.00 | 0.00 | ||
| 20260508113040 | 9 | 256 | 1.6 | 4.8 | 0.00 | 0.00 | 0.00 | ||
| 20260508110110 | 9 | 135 | 0.0 | 1.6 | 0.00 | 0.00 | 0.00 | ||
| 20260508103051 | 8 | 135 | 0.0 | 1.6 | 0.00 | 0.00 | 0.00 | ||
| 20260508100059 | 8 | 135 | 0.0 | 1.6 | 0.00 | 0.00 | 0.00 | ||
| 20260508093038 | 8 | 138 | 0.0 | 0.0 | 0.00 | 0.00 | 0.00 | ||
| 20260508083047 | 8 | 171 | 0.0 | 0.0 | 0.00 | 0.00 | 0.00 | ||
| 20260508080056 | 8 | 171 | 0.0 | 0.0 | 0.00 | 0.00 | 0.00 | ||
| 20260508073038 | 8 | 171 | 0.0 | 0.0 | 0.00 | 0.00 | 0.00 | ||
| 20260508070107 | 8 | 171 | 0.0 | 0.0 | 0.00 | 0.00 | 0.00 | ||
| 20260508063046 | 8 | 136 | 0.0 | 0.0 | 0.00 | 0.00 | 0.00 | ||
| 20260508060057 | 9 | 136 | 0.0 | 1.6 | 0.00 | 0.00 | 0.00 | ||
| 20260508053038 | 9 | 154 | 0.0 | 0.0 | 0.00 | 0.00 | 0.00 | ||
| 20260508050106 | 9 | 174 | 0.0 | 1.6 | 0.00 | 0.00 | 0.00 | ||
| 20260508043046 | 10 | 231 | 0.0 | 0.0 | 0.00 | 0.00 | 0.00 | ||
| 20260508033032 | 11 | 222 | 0.0 | 4.8 | 0.00 | 0.00 | 0.00 | ||
| 20260508030058 | 11 | 240 | 0.0 | 3.2 | 0.00 | 0.00 | 0.00 | ||
| 20260508023039 | 12 | 213 | 0.0 | 8.0 | 0.00 | 0.00 | 0.00 | ||
| 20260508020110 | 12 | 279 | 1.6 | 8.0 | 0.00 | 0.00 | 0.00 | ||
| 20260508010100 | 13 | 272 | 3.2 | 12.9 | 0.00 | 0.00 | 0.00 | ||
| 20260508003042 | 14 | 250 | 3.2 | 11.3 | 0.00 | 0.00 | 0.00 | ||
| 20260508000052 | 15 | 237 | 3.2 | 11.3 | 0.00 | 0.00 | 0.00 | ||
| 20260507233034 | 16 | 304 | 3.2 | 11.3 | 0.00 | 0.00 | 0.00 | ||
| 20260507230104 | 16 | 260 | 3.2 | 9.7 | 0.00 | 0.00 | 0.00 | ||
| 20260507223042 | 16 | 246 | 6.4 | 14.5 | 0.00 | 0.00 | 0.00 |